Погода в Эшвилле

США     35°36′02″N   82°33′14″W
темп.,
°C
ветер,
м/с
пор.,
м/с
влажн.,
%
обл.,
%
осадки,
мм/ч
давл.,
гПа
погр.,
м
21 октября, чт
чт2123:00+10ссз117164 0.0 102310
02:00+9сз1175100 0.0 102210
05:00+8сз21805 0.0 102215
08:00+7ссз11854 0.0 102213
11:00+18ююз12503 0.0 1020308
14:00+21юз356191 0.2 10171403
17:00+19зюз367360 0.4 1016974
20:00+14ююз119611 0.4 101717
22 октября, пт
пт2223:00+14з01941 0.0 101711
02:00+13ссз119617 0.0 101623
05:00+12сз2395100 0.0 1016142
08:00+9сз229660 0.0 101762
11:00+15ссз3466100 0.0 1017604
14:00+17ссз3353100 0.0 1016944
17:00+16ссз236144 0.0 1015483
20:00+10сз25860 0.0 1017109
23 октября, сб
сб2323:00+8ссз25930 0.0 1019114
02:00+7сз22960 0.0 101942
05:00+6сз22970 0.0 101934
08:00+6сз22973 0.0 102135
11:00+14сз13570 0.0 1020429
14:00+20сз12395 0.0 1018882
17:00+19юв12464 0.0 1016600
20:00+12ююв01753 0.0 101910
24 октября, вс
вс2423:00+10ю00820 0.0 102010
02:00+10ссз00836 0.0 102010
05:00+9с00825 0.0 102010
08:00+9зсз00795 0.0 102110
11:00+18ююв13495 0.0 1021407
14:00+23ююв34375 0.0 10181157
17:00+21ююв365063 0.0 1018615
20:00+13ююв11780 0.0 102014
25 октября, пн
пн2523:00+11ююв11850 0.0 102012
02:00+11з00830 0.0 102010
05:00+10сз11822 0.0 102011
08:00+10сз11815 0.0 101911
11:00+20ююз1262100 0.0 1018328
14:00+24з3648100 0.0 10141442
17:00+23зюз365972 0.0 10131314
20:00+18зюз1183100 0.1 101425